Weather History for KFOE - January, 2014

Change the Weather History Date:

Sunday, January 19, 2014

  Actual Average Record
Temperature  
Mean Temperature 42 °F -  
Max Temperature 64 °F 38 °F 68 °F (2015)
Min Temperature 19 °F 17 °F -9 °F (1985)
Degree Days  
Heating Degree Days 24    
Moisture  
Dew Point 20 °F    
Average Humidity 52    
Maximum Humidity 85    
Minimum Humidity 18    
Precipitation  
Precipitation 0.00 in - - ()
Sea Level Pressure  
Sea Level Pressure 29.95 in    
Wind  
Wind Speed 10 mph (SW)    
Max Wind Speed 20 mph    
Max Gust Speed 26 mph    
Visibility 10 miles    
Events      
Averages and records for this station are not official NWS values.
T = Trace of Precipitation, MM = Missing Value Source: NWS Daily Summary

Daily Weather History Graph

Daily Weather History Graph

Search for Another Location

Airport or City:

Trip Planner

Search our weather history database for the weather conditions in past years. The results will help you decide how hot, cold, wet, or windy it might be!

Date:

Astronomy

Jan. 19, 2014 Rise Set
Actual Time 7:38 AM CST 5:29 PM CST
Civil Twilight 7:09 AM CST 5:58 PM CST
Nautical Twilight 6:36 AM CST 6:30 PM CST
Astronomical Twilight 6:04 AM CST 7:02 PM CST
Moon 9:05 PM CST (1/19) 9:10 AM CST (1/19)
Length of Visible Light 10h 48m
Length of Day
9h 51m
Waning Gibbous, 89% of the Moon is Illuminated
Jan 19
Waning Gibbous
Jan 23
Last Quarter
Jan 30
New
Feb 6
First Quarter
Feb 14
Full

Hourly Weather History & Observations

Time (CST) Temp. Windchill Dew Point Humidity Pressure Visibility Wind Dir Wind Speed Gust Speed Precip Events Conditions
12:53 AM 19.9 °F 11.1 °F 14.0 °F 78% 30.14 in 10.0 mi SW 6.9 mph - N/A   Clear
1:53 AM 19.0 °F 11.1 °F 15.1 °F 85% 30.11 in 10.0 mi SSW 5.8 mph - N/A   Clear
2:53 AM 21.0 °F 11.4 °F 16.0 °F 81% 30.11 in 10.0 mi South 8.1 mph - N/A   Clear
3:53 AM 19.0 °F 10.0 °F 15.1 °F 85% 30.10 in 10.0 mi South 6.9 mph - N/A   Clear
4:53 AM 19.9 °F 10.1 °F 16.0 °F 85% 30.06 in 10.0 mi SSW 8.1 mph - N/A   Clear
5:53 AM 21.9 °F 11.7 °F 17.1 °F 82% 30.06 in 10.0 mi SSW 9.2 mph - N/A   Clear
6:53 AM 24.1 °F 15.2 °F 19.0 °F 81% 30.05 in 10.0 mi South 8.1 mph - N/A   Clear
7:53 AM 27.0 °F 16.1 °F 21.0 °F 78% 30.03 in 10.0 mi SSW 12.7 mph - N/A   Clear
8:53 AM 33.1 °F 23.4 °F 25.0 °F 72% 30.01 in 10.0 mi SW 13.8 mph - N/A   Clear
9:53 AM 43.0 °F 35.1 °F 24.1 °F 47% 29.99 in 10.0 mi SW 17.3 mph - N/A   Clear
10:53 AM 48.9 °F - 23.0 °F 36% 29.96 in 10.0 mi SW 19.6 mph - N/A   Clear
11:53 AM 55.0 °F - 19.9 °F 25% 29.94 in 10.0 mi WSW 17.3 mph 26.5 mph N/A   Clear
12:53 PM 59.0 °F - 21.0 °F 23% 29.88 in 10.0 mi SW 16.1 mph 24.2 mph N/A   Clear
1:53 PM 63.0 °F - 19.9 °F 19% 29.83 in 10.0 mi SW 16.1 mph 26.5 mph N/A   Clear
2:53 PM 64.0 °F - 19.9 °F 18% 29.83 in 10.0 mi WSW 19.6 mph 24.2 mph N/A   Clear
3:53 PM 63.0 °F - 21.0 °F 20% 29.82 in 10.0 mi WSW 16.1 mph - N/A   Clear
4:53 PM 59.0 °F - 21.9 °F 24% 29.82 in 10.0 mi SW 10.4 mph - N/A   Clear
5:53 PM 48.9 °F - 21.9 °F 35% 29.84 in 10.0 mi SW 9.2 mph - N/A   Clear
6:53 PM 43.0 °F 38.2 °F 21.9 °F 43% 29.86 in 10.0 mi WSW 8.1 mph - N/A   Clear
7:53 PM 45.0 °F 39.7 °F 21.9 °F 40% 29.86 in 10.0 mi SW 10.4 mph - N/A   Clear
8:53 PM 45.0 °F 39.3 °F 23.0 °F 42% 29.86 in 10.0 mi SW 11.5 mph - N/A   Clear
9:53 PM 46.0 °F 40.6 °F 24.1 °F 42% 29.85 in 10.0 mi SW 11.5 mph - N/A   Clear
10:53 PM 45.0 °F 43.5 °F 23.0 °F 42% 29.87 in 10.0 mi NW 3.5 mph - N/A   Clear
11:53 PM 33.1 °F 28.7 °F 21.9 °F 64% 29.87 in 10.0 mi NE 4.6 mph - N/A   Clear